Prescott, AZ

11:25 PM MST on November 19, 2019 (GMT -0700)
Love

Weather History for KPRC - May, 2019

Change the Weather History Date:

Friday, May 10, 2019

  Actual Average Record
Temperature  
Mean Temperature 55 °F 60 °F  
Max Temperature 69 °F 75 °F 89 °F (1960)
Min Temperature 40 °F 45 °F 29 °F (1953)
Degree Days  
Heating Degree Days 10    
Month to date heating degree days 82  
Since 1 July heating degree days 4131  
Cooling Degree Days 0    
Month to date cooling degree days 0  
Year to date cooling degree days 1  
Growing Degree Days 4 (Base 50)    
Moisture  
Dew Point 38 °F    
Average Humidity 57    
Maximum Humidity 93    
Minimum Humidity 29    
Precipitation  
Precipitation 0.00 in 0.02 in 0.16 in (1957)
Month to date precipitation 0.73 0.15  
Year to date precipitation 6.25 4.23  
Sea Level Pressure  
Sea Level Pressure 29.76 in    
Wind  
Wind Speed 7 mph (South)    
Max Wind Speed 22 mph    
Max Gust Speed 28 mph    
Visibility 10 miles    
Events      
T = Trace of Precipitation, MM = Missing Value Source: NWS Daily Summary

Daily Weather History Graph

Daily Weather History Graph

Search for Another Location

Airport or City:

Astronomy

May. 10, 2019 Rise Set
Actual Time 5:31 AM MST 7:21 PM MST
Civil Twilight 5:03 AM MST 7:49 PM MST
Nautical Twilight 4:30 AM MST 8:22 PM MST
Astronomical Twilight 3:54 AM MST 8:58 PM MST
Moon 10:37 AM MST (5/10) 12:15 AM MST (5/10)
Length of Visible Light 14h 45m
Length of Day
13h 50m
Waxing Crescent, 36% of the Moon is Illuminated
May 10
Waxing Crescent
May 11
First Quarter
May 18
Full
May 26
Last Quarter
Jun 3
New

Hourly Weather History & Observations

Time (MST) Temp. Windchill Dew Point Humidity Pressure Visibility Wind Dir Wind Speed Gust Speed Precip Events Conditions
12:53 AM 44.1 °F 42.5 °F 42.1 °F 93% 29.73 in 9.0 mi SE 3.5 mph - N/A   Clear
1:53 AM 45.0 °F - 41.0 °F 86% 29.72 in 10.0 mi Calm Calm - N/A   Clear
2:53 AM 43.0 °F 41.3 °F 39.9 °F 89% 29.73 in 10.0 mi SW 3.5 mph - N/A   Partly Cloudy
3:53 AM 41.0 °F - 37.9 °F 89% 29.75 in 10.0 mi Calm Calm - N/A   Clear
4:53 AM 41.0 °F - 39.0 °F 93% 29.75 in 10.0 mi Calm Calm - N/A   Clear
5:53 AM 41.0 °F 38.0 °F 39.0 °F 93% 29.77 in 10.0 mi South 4.6 mph - N/A   Clear
6:53 AM 48.9 °F - 43.0 °F 80% 29.76 in 10.0 mi Calm Calm - N/A   Clear
7:53 AM 54.0 °F - 44.1 °F 69% 29.75 in 10.0 mi SE 8.1 mph - N/A   Clear
8:53 AM 57.0 °F - 42.1 °F 57% 29.75 in 10.0 mi SE 12.7 mph - N/A   Clear
9:53 AM 61.0 °F - 39.0 °F 44% 29.75 in 10.0 mi SE 17.3 mph 24.2 mph N/A   Clear
10:53 AM 63.0 °F - 35.1 °F 35% 29.76 in 10.0 mi SE 16.1 mph 25.3 mph N/A   Scattered Clouds
11:53 AM 63.0 °F - 35.1 °F 35% 29.76 in 10.0 mi South 11.5 mph - N/A   Partly Cloudy
12:53 PM 66.9 °F - 34.0 °F 30% 29.73 in 10.0 mi Variable 4.6 mph - N/A   Mostly Cloudy
1:53 PM 64.9 °F - 34.0 °F 32% 29.73 in 10.0 mi SE 17.3 mph 21.9 mph N/A   Mostly Cloudy
2:53 PM 66.9 °F - 34.0 °F 30% 29.73 in 10.0 mi West 9.2 mph - N/A   Mostly Cloudy
3:53 PM 64.9 °F - 32.0 °F 29% 29.73 in 10.0 mi Variable 5.8 mph - N/A   Mostly Cloudy
4:53 PM 66.0 °F - 34.0 °F 30% 29.74 in 10.0 mi SSW 9.2 mph - N/A   Mostly Cloudy
5:53 PM 64.0 °F - 34.0 °F 33% 29.75 in 10.0 mi SSW 12.7 mph - N/A   Mostly Cloudy
6:53 PM 60.1 °F - 36.0 °F 41% 29.76 in 10.0 mi SW 8.1 mph - N/A   Mostly Cloudy
7:53 PM 57.0 °F - 37.0 °F 47% 29.78 in 10.0 mi WSW 5.8 mph - N/A   Clear
8:53 PM 55.9 °F - 37.0 °F 49% 29.81 in 10.0 mi South 4.6 mph - N/A   Clear
9:53 PM 53.1 °F - 39.0 °F 59% 29.83 in 10.0 mi SSW 3.5 mph - N/A   Scattered Clouds
10:53 PM 54.0 °F - 37.9 °F 55% 29.83 in 10.0 mi Calm Calm - N/A   Overcast
11:53 PM 50.0 °F - 41.0 °F 71% 29.84 in 10.0 mi Calm Calm - N/A   Clear